Meath Environmental Platform

Observations for Trim Market St

Time AQI Temp °C Hum % Pres Pa CO μg/m³ H₂S μg/m³ NO μg/m³ NO₂ μg/m³ O₃ μg/m³ SO₂ μg/m³ PM1 μg/m³ PM2.5 μg/m³ PM10 μg/m³
Monday 13 July 2026
06:44 1 18.3 76 37,625 0.15 0 1.97 3.74 12.99 0 1.43 2.32 4.56
06:43 1 18.3 76 36,748 0.15 0 0.13 2.13 14.36 0 1.43 3.27 6.34
06:42 1 18.2 76 35,686 0.16 0 0 3.13 13.62 0 0.71 2.3 5.16
06:39 1 18.1 76 32,503 0.15 0 0 1.91 16.31 0 1.43 2.28 4.58
06:30 1 17.7 77 26,562 0.13 0 0 2.54 15.84 0 1.43 2.73 5.19
06:29 1 17.7 77 25,962 0.13 0 0.49 1.93 17.91 0 1.43 2.25 5.19
06:28 1 17.6 77 25,302 0.14 0 0 2.75 14.77 0 0.71 2.72 5.78
06:27 1 17.6 77 24,652 0.14 0 0 2.55 16.86 0 2.14 3.2 6.36
06:26 1 17.6 77 24,082 0.17 0 0 3.44 15.97 0 2.14 2.71 6.36
06:25 1 17.6 77 23,471 0.27 0 0 2.74 16.9 0 2.14 3.67 6.95
06:24 1 17.5 77 22,867 0.14 0 0 1.65 16.93 0 2.14 3.19 6.36
06:23 1 17.5 77 22,256 0.14 0 0 3.84 18.05 0 1.43 2.71 6.95
06:22 1 17.5 78 21,687 0.13 0 0 4.23 16.54 0 0.71 2.23 4.62
06:21 1 17.4 78 21,228 0.13 0 0.37 4.76 12.74 0 1.43 2.7 5.78
06:20 1 17.4 78 20,814 0.12 0 0 5.34 14.07 0 1.43 3.17 5.79
06:19 1 17.4 78 20,265 0.12 0 0.89 6.04 13.89 0 3.56 4.6 7.53
06:18 1 17.4 78 19,749 0.13 0 0 3.83 17.45 0 1.43 3.17 6.37
06:17 1 17.4 78 19,121 0.11 0 0 3.23 20.71 0 2.85 4.12 8.11
06:15 1 17.3 78 18,391 0.12 0 0 4.35 14.49 0 2.14 3.16 5.79
06:14 1 17.3 78 17,899 0.12 0 0 2.15 18.6 0 2.14 3.16 6.37